Location: Grand Rapids
(42.9630°N, 85.6680°W)
Time: 01:56:08
(UTC-04:00)

A-11 Canister half - Pass Details

Date: 08 June 2024
Orbit: 1524 x 1684 km, 47.3° (Epoch: 21 June)

Event Time Altitude Azimuth Distance (km) Brightness Sun altitude
Rises 16:27:49 0° 200° (SSW) 4,691 11.9 50.4°
Reaches altitude 10° 16:31:18 10° 191° (S) 3,697 11.4 49.8°
Maximum altitude 16:39:07 32° 133° (SE) 2,400 10.2 48.4°
Drops below altitude 10° 16:46:55 10° 75° (ENE) 3,698 10.7 47.0°
Sets 16:50:22 0° 66° (ENE) 4,693 11.1 46.4°
